GW1261 Weather Reports


Display with metric or nautical units.
time (UTC)temp
F
wind
direction
speed
MPH
gust
MPH
rain 1hr
in
rain 24hr
in
rain mn
in
humidity
%
barometer
mb
20260504001700 72 219 0.0 0.0 0.00 0.00 0.00 96 978.2
20260504001157 72 219 0.0 0.0 0.00 0.00 0.00 97 978.4
20260504000653 71 219 0.0 0.0 0.00 0.00 0.00 98 978.4
20260504000151 70 212 0.0 0.0 0.00 0.00 0.00 98 978.1
20260503235649 70 212 0.0 0.0 0.00 0.00 0.00 99 978.1
20260503235145 70 212 0.0 0.0 0.00 0.00 0.00 99 978.3
20260503234643 70 212 0.0 0.0 0.00 0.00 0.00 99 978.4
20260503234141 70 212 0.0 0.0 0.00 0.00 0.00 99 978.2
20260503233638 70 213 0.0 0.0 0.00 0.00 0.00 99 978.0
20260503233133 70 213 0.0 0.0 0.00 0.00 0.00 99 978.0
20260503232630 70 213 0.0 0.0 0.00 0.00 0.00 99 978.0
20260503232128 70 213 0.0 0.0 0.00 0.00 0.00 99 978.1
20260503231626 70 213 0.0 0.0 0.00 0.00 0.00 99 978.1
20260503231122 69 213 0.0 0.0 0.00 0.00 0.00 99 977.9
20260503230619 69 213 0.0 0.0 0.00 0.00 0.00 99 977.9
20260503230116 69 213 0.0 0.0 0.00 0.00 0.00 99 977.8
20260503225614 69 213 0.0 0.0 0.00 0.00 0.00 99 977.7
20260503225113 69 213 0.0 0.0 0.00 0.00 0.00 99 977.8
20260503224611 69 213 0.0 0.0 0.00 0.00 0.00 99 977.8
20260503224109 69 213 0.0 0.0 0.00 0.00 0.00 99 977.8
20260503223607 69 213 0.0 0.0 0.00 0.00 0.00 99 977.5
20260503223102 69 213 0.0 0.0 0.00 0.00 0.00 99 977.3
20260503222600 69 213 0.0 0.0 0.00 0.00 0.00 99 977.3
20260503222058 69 213 0.0 0.0 0.00 0.00 0.00 99 977.2
20260503221556 69 214 0.0 0.0 0.00 0.00 0.00 99 977.6
20260503221053 69 211 0.0 0.0 0.00 0.00 0.00 99 977.3
20260503220549 69 203 0.0 0.0 0.00 0.00 0.00 99 976.9
20260503220047 69 193 0.0 0.0 0.00 0.00 0.00 99 977.1
20260503215543 69 196 0.0 0.0 0.00 0.00 0.00 99 976.8
20260503215040 69 280 0.0 0.0 0.00 0.00 0.00 99 976.9
20260503214538 69 242 0.0 0.0 0.00 0.00 0.00 99 976.6
20260503214035 69 242 0.0 0.0 0.00 0.00 0.00 99 976.6
20260503213533 69 247 0.0 0.0 0.00 0.00 0.00 99 976.4
20260503213030 69 257 0.0 0.0 0.00 0.00 0.00 99 976.5
20260503212527 69 234 0.0 0.0 0.00 0.00 0.00 99 976.5
20260503212025 69 252 0.0 0.0 0.00 0.00 0.00 99 976.7
20260503211521 70 233 0.0 0.0 0.00 0.00 0.00 99 976.4
20260503211016 70 233 0.0 0.0 0.00 0.00 0.00 99 976.2
20260503210514 70 234 0.0 0.0 0.00 0.00 0.00 99 976.5
20260503210010 70 234 0.0 0.0 0.00 0.00 0.00 99 976.4
20260503205506 70 233 0.0 0.0 0.00 0.00 0.00 99 976.6
20260503205002 70 234 0.0 0.0 0.00 0.00 0.00 99 976.5
20260503204500 70 231 0.0 0.0 0.00 0.00 0.00 99 976.3
20260503203956 70 229 0.0 0.0 0.00 0.00 0.00 99 976.2
20260503203454 70 229 0.0 0.0 0.00 0.00 0.00 99 976.4
20260503202950 70 242 0.0 0.0 0.00 0.00 0.00 99 976.5
20260503202449 70 259 0.0 0.0 0.00 0.00 0.00 99 976.2
20260503201947 70 229 0.0 0.0 0.00 0.00 0.00 99 976.2
20260503201444 70 225 0.0 0.0 0.00 0.00 0.00 99 976.3
20260503200941 70 225 0.0 0.0 0.00 0.00 0.00 99 976.4
20260503200438 70 228 0.0 0.0 0.00 0.00 0.00 99 976.3
20260503195934 70 221 0.0 0.0 0.00 0.00 0.00 99 976.4
20260503195432 70 221 0.0 0.0 0.00 0.00 0.00 99 976.3
20260503194928 70 221 0.0 0.0 0.00 0.00 0.00 99 976.5
20260503194425 70 221 0.0 0.0 0.00 0.00 0.00 99 976.6
20260503193920 70 221 0.0 0.0 0.00 0.00 0.00 99 976.7
20260503193416 70 221 0.0 0.0 0.00 0.00 0.00 99 976.3
20260503192912 70 221 0.0 0.0 0.00 0.00 0.00 99 976.2
20260503192409 70 231 0.0 0.0 0.00 0.00 0.00 99 976.5
20260503191904 70 221 0.0 0.0 0.00 0.00 0.00 99 976.7
20260503191402 70 221 0.0 0.0 0.00 0.00 0.00 99 976.4
20260503190858 70 221 0.0 0.0 0.00 0.00 0.00 99 976.6
20260503190355 70 221 0.0 0.0 0.00 0.00 0.00 99 976.5
20260503185852 71 221 0.0 0.0 0.00 0.00 0.00 99 976.4
20260503185349 71 223 0.0 0.0 0.00 0.00 0.00 99 976.7
20260503184848 71 221 0.0 0.0 0.00 0.00 0.00 99 976.5
20260503184345 71 221 0.0 0.0 0.00 0.00 0.00 99 976.8
20260503183840 71 221 0.0 0.0 0.00 0.00 0.00 99 976.8
20260503183338 71 221 0.0 0.0 0.00 0.00 0.00 99 976.7
20260503182835 71 221 0.0 0.0 0.00 0.00 0.00 99 976.8
20260503182334 71 221 0.0 0.0 0.00 0.00 0.00 99 976.9
20260503181831 71 221 0.0 0.0 0.00 0.00 0.00 99 976.7
20260503181328 71 221 0.0 0.0 0.00 0.00 0.00 99 976.8
20260503180824 71 221 0.0 0.0 0.00 0.00 0.00 99 977.0
20260503180323 71 221 0.0 0.0 0.00 0.00 0.00 99 976.8
20260503175818 71 221 0.0 0.0 0.00 0.00 0.00 99 976.9
20260503175317 72 221 0.0 0.0 0.00 0.00 0.00 99 977.0
20260503174812 72 221 0.0 0.0 0.00 0.00 0.00 99 977.1
20260503174311 72 221 0.0 0.0 0.00 0.00 0.00 99 977.0
20260503173806 72 221 0.0 0.0 0.00 0.00 0.00 99 977.0
20260503173302 72 221 0.0 0.0 0.00 0.00 0.00 98 976.9
20260503172759 72 221 0.0 0.0 0.00 0.00 0.00 98 976.9
20260503172256 72 216 0.0 0.0 0.00 0.00 0.00 98 977.0
20260503171752 72 215 0.0 0.0 0.00 0.00 0.00 98 977.1
20260503171249 72 215 0.0 0.0 0.00 0.00 0.00 98 976.9
20260503170746 72 215 0.0 0.0 0.00 0.00 0.00 98 976.9
20260503170243 72 214 0.0 0.0 0.00 0.00 0.00 98 977.0
20260503160205 72 243 0.0 0.0 0.00 0.12 0.12 97 977.2
20260503150635 73 136 0.0 0.0 0.00 0.12 0.12 96 976.9
20260503150131 73 233 0.0 0.0 0.00 0.12 0.12 96 976.6
20260503131025 74 232 0.0 0.0 0.00 0.12 0.12 96 974.8
20260503130522 74 239 0.0 1.0 0.00 0.12 0.12 96 974.9
20260503110413 74 224 0.0 0.0 0.00 0.12 0.12 94 973.3
20260503090304 96 225 0.0 0.0 0.00 0.00 0.00 52 972.5
20260503081231 91 220 0.0 0.0 0.00 0.00 0.00 57 973.3
20260503080726 91 220 0.0 0.0 0.00 0.00 0.00 59 973.1
20260503080224 91 220 0.0 0.0 0.00 0.00 0.00 58 973.4
20260503072700 93 224 0.0 0.0 0.00 0.00 0.00 58 973.9
20260503072157 93 203 0.0 0.0 0.00 0.00 0.00 53 974.0
20260503071654 95 203 0.0 0.0 0.00 0.00 0.00 51 973.9
20260503071151 95 234 0.0 0.0 0.00 0.00 0.00 53 974.0
20260503070648 96 248 0.0 0.0 0.00 0.00 0.00 52 974.1
20260503070146 97 233 0.0 0.0 0.00 0.00 0.00 52 974.1
20260503060110 89 182 0.0 0.0 0.00 0.00 0.00 59 975.6
20260503055101 92 177 0.0 0.0 0.00 0.00 0.00 58 975.8
20260503054557 92 338 0.0 1.0 0.00 0.00 0.00 59 976.0
20260503054054 93 288 0.0 1.0 0.00 0.00 0.00 57 975.9
20260503053552 93 240 0.0 0.0 0.00 0.00 0.00 61 976.1
20260503053050 92 218 0.0 3.0 0.00 0.00 0.00 57 976.4
20260503052547 93 253 0.0 0.0 0.00 0.00 0.00 56 976.5
20260503052043 94 278 0.0 0.0 0.00 0.00 0.00 56 976.5
20260503051538 93 269 0.0 0.0 0.00 0.00 0.00 55 976.7
20260503051037 94 248 0.0 0.0 0.00 0.00 0.00 58 976.8
20260503050532 94 211 0.0 0.0 0.00 0.00 0.00 55 976.7
20260503050030 94 212 0.0 0.0 0.00 0.00 0.00 60 976.7
20260503045527 93 223 0.0 0.0 0.00 0.00 0.00 60 976.9
20260503045024 92 217 0.0 0.0 0.00 0.00 0.00 62 977.0
20260503044520 92 214 0.0 0.0 0.00 0.00 0.00 59 977.0
20260503044018 91 216 0.0 0.0 0.00 0.00 0.00 60 976.9
20260503043514 91 214 0.0 0.0 0.00 0.00 0.00 61 977.1
20260503043011 91 212 0.0 0.0 0.00 0.00 0.00 58 977.1
20260503042508 91 205 0.0 0.0 0.00 0.00 0.00 60 977.5
20260503042004 90 210 0.0 0.0 0.00 0.00 0.00 61 977.3
20260503041501 90 48 0.0 0.0 0.00 0.00 0.00 61 977.5
20260503040959 91 85 0.0 0.0 0.00 0.00 0.00 60 977.5
20260503040456 91 85 0.0 0.0 0.00 0.00 0.00 60 977.6
20260503035953 89 222 0.0 0.0 0.00 0.00 0.00 62 977.6
20260503035450 91 219 0.0 0.0 0.00 0.00 0.00 60 977.7
20260503034948 91 220 0.0 0.0 0.00 0.00 0.00 60 977.7
20260503034445 90 185 0.0 0.0 0.00 0.00 0.00 62 977.7
20260503033942 89 204 0.0 0.0 0.00 0.00 0.00 62 977.9
20260503033439 90 198 0.0 0.0 0.00 0.00 0.00 62 977.8
20260503032937 89 216 0.0 0.0 0.00 0.00 0.00 64 977.9
20260503032435 86 215 0.0 0.0 0.00 0.00 0.00 69 978.2
20260503031932 86 255 0.0 0.0 0.00 0.00 0.00 69 978.0
20260503031430 87 191 0.0 0.0 0.00 0.00 0.00 69 978.1
20260503030926 85 160 0.0 0.0 0.00 0.00 0.00 70 978.3
20260503030423 87 69 3.0 5.0 0.00 0.00 0.00 70 978.2
20260503025920 87 63 3.0 5.0 0.00 0.00 0.00 68 978.1
20260503025417 86 83 2.0 3.0 0.00 0.00 0.00 68 978.3
20260503024914 86 257 0.0 0.0 0.00 0.00 0.00 68 978.2
20260503024410 85 230 0.0 0.0 0.00 0.00 0.00 70 978.5
20260503023907 86 284 0.0 0.0 0.00 0.00 0.00 67 978.7
20260503023359 86 98 0.0 1.0 0.00 0.00 0.00 70 978.2
20260503022856 86 149 0.0 0.0 0.00 0.00 0.00 70 978.1
20260503022356 86 149 0.0 0.0 0.00 0.00 0.00 70 978.2
20260503021852 86 64 0.0 1.0 0.00 0.00 0.00 70 978.1
20260503021348 83 245 0.0 0.0 0.00 0.00 0.00 75 978.2
20260503020846 83 359 0.0 0.0 0.00 0.00 0.00 74 978.2
20260503020344 83 34 0.0 0.0 0.00 0.00 0.00 74 978.1
20260503015840 84 8 1.0 1.0 0.00 0.00 0.00 74 978.0
20260503015337 83 43 1.0 2.0 0.00 0.00 0.00 76 978.1
20260503014833 80 69 1.0 2.0 0.00 0.00 0.00 79 978.0
20260503014331 82 121 0.0 0.0 0.00 0.00 0.00 77 978.0
20260503013828 83 185 0.0 0.0 0.00 0.00 0.00 76 977.7
20260503013325 82 263 0.0 0.0 0.00 0.00 0.00 77 977.8
20260503012822 81 217 0.0 0.0 0.00 0.00 0.00 81 977.6
20260503012320 80 208 0.0 0.0 0.00 0.00 0.00 83 977.7
20260503011816 79 208 0.0 0.0 0.00 0.00 0.00 84 977.9
20260503011313 78 206 0.0 0.0 0.00 0.00 0.00 85 977.8
20260503010809 77 227 0.0 0.0 0.00 0.00 0.00 85 977.5
20260503010307 77 210 0.0 0.0 0.00 0.00 0.00 87 977.7
20260503005804 77 223 0.0 0.0 0.00 0.00 0.00 89 977.8
20260503005304 76 224 0.0 0.0 0.00 0.00 0.00 89 977.5
20260503004757 76 224 0.0 0.0 0.00 0.00 0.00 90 977.7
20260503004255 76 231 0.0 0.0 0.00 0.00 0.00 90 977.7
20260503003752 76 231 0.0 0.0 0.00 0.00 0.00 90 977.8
20260503003249 76 231 0.0 0.0 0.00 0.00 0.00 90 977.2
20260503002746 77 231 0.0 0.0 0.00 0.00 0.00 89 977.5
20260503002243 77 231 0.0 0.0 0.00 0.00 0.00 88 977.5
20260503001739 77 232 0.0 0.0 0.00 0.00 0.00 87 977.1